This demonstration page uses our WeatherBlox Daily Observations layout. Learn more.

Left ArrowRight Arrow

34.16533, -84.80231

Hourly Observations for September 11, 2017

Temp ( °F °C ) Dew Point ( °F °C ) Humidity (%) Winds ( mph kmh ) Pressure ( in mb ) Visibility ( mi km ) Precip ( " mm )
12:53 am 00:53 Clear 64 17.8 49 9.4 58 58 ENE 10 17 30.11 1020 10 16 0.00 0.00
1:53 am 01:53 Clear 64 17.8 49 9.4 58 58 VRB 6 9 30.11 1020 10 16 0.00 0.00
2:53 am 02:53 Mostly Cloudy 63 17.2 50 10 63 63 VRB 7 11 30.09 1019 10 16 0.00 0.00
3:53 am 03:53 Partly Cloudy 63 17.2 51 10.6 65 65 ENE 10 17 30.06 1018 10 16 0.00 0.00
4:53 am 04:53 Mostly Cloudy with Light Rain 60 15.6 53 11.7 78 78 VRB 6 9 30.06 1018 10 16 0.00 0.03
5:53 am 05:53 Mostly Cloudy with Light Rain 57 13.9 54 12.2 90 90 NE 8 13 30.05 1018 10 16 0.04 1.02
6:53 am 06:53 Mostly Cloudy with Light Rain 56 13.3 55 12.8 97 97 NE 12 19 30.03 1017 10 16 0.07 1.78
7:53 am 07:53 Mostly Cloudy with Light Rain 56 13.3 54 12.2 93 93 NNE 9 15 30.03 1017 10 16 0.04 1.02
8:53 am 08:53 Cloudy with Light Rain 54 12.2 52 11.1 93 93 NE 9 15 30.01 1016 10 16 0.09 2.29
9:53 am 09:53 Cloudy with Rain 54 12.2 54 12.2 100 100 NNE 3 6 29.98 1015 7 11 0.11 2.79
10:53 am 10:53 Cloudy with Light Rain 55 12.8 55 12.8 100 100 N 8 13 29.96 1015 10 16 0.10 2.54
11:53 am 11:53 Cloudy with Light Rain 56 13.3 56 13.3 100 100 N 12 19 29.91 1013 10 16 0.11 2.79
12:34 pm 12:34 Cloudy with Light Rain 56 13.3 56 13.3 100 100 N 15 24 29.91 1013 10 16 0.04 1.02
12:53 pm 12:53 Cloudy with Light Rain 56 13.3 56 13.3 100 100 N 14 22 29.89 1012 7 11 0.07 1.78
1:53 pm 13:53 Cloudy with Light Rain 56 13.3 56 13.3 100 100 N 14 22 29.84 1010 7 11 0.09 2.29
2:53 pm 14:53 Cloudy with Rain 56 13.3 56 13.3 100 100 N 12 19 29.75 1008 6 10 0.14 3.56
3:19 pm 15:19 Cloudy with Light Rain 56 13.3 56 13.3 100 100 N 13 20 29.77 1008 7 11 0.05 1.27
3:53 pm 15:53 Cloudy with Rain 56 13.3 56 13.3 100 100 N 10 17 29.70 1006 5 8 0.17 4.32
4:28 pm 16:28 Cloudy with Rain 56 13.3 56 13.3 100 100 N 12 19 29.68 1005 4 6 0.16 4.06
4:46 pm 16:46 Cloudy with Rain 56 13.3 56 13.3 100 100 N 10 17 29.68 1005 5 8 0.22 5.59
4:53 pm 16:53 Cloudy with Heavy Rain 56 13.3 56 13.3 100 100 N 13 20 29.65 1004 5 8 0.26 6.60
5:39 pm 17:39 Cloudy with Heavy Rain 57 13.9 57 13.9 100 100 N 17 28 29.65 1004 3 5 0.40 10.16
5:41 pm 17:41 Cloudy with Heavy Rain 57 13.9 57 13.9 100 100 N 20 31 29.62 1003 3 4 0.42 10.67
5:48 pm 17:48 Cloudy with Heavy Rain 57 14 57 14 100 100 N 14 22 29.65 1004 3 5 0.49 12.45
5:53 pm 17:53 Cloudy with Heavy Rain 57 13.9 57 13.9 100 100 N 16 26 29.62 1003 3 5 0.54 13.72
6:03 pm 18:03 Cloudy with Heavy Rain 57 13.9 57 13.9 100 100 N 13 20 29.65 1004 3 4 0.11 2.79
6:53 pm 18:53 Cloudy with Heavy Rain 57 13.9 57 13.9 100 100 N 8 13 29.62 1003 3 5 0.62 15.75
7:22 pm 19:22 Cloudy with Heavy Rain 57 13.9 57 13.9 100 100 N 8 13 29.62 1003 4 6 0.20 5.08
7:36 pm 19:36 Cloudy with Heavy Rain 57 13.9 57 13.9 100 100 N 10 17 29.62 1003 4 6 0.32 8.13
7:51 pm 19:51 Cloudy with Heavy Rain 57 14 57 14 100 100 N 9 15 29.62 1003 3 4 0.48 12.19
7:53 pm 19:53 Cloudy with Heavy Rain 57 13.9 57 13.9 100 100 N 7 11 29.59 1002 3 4 0.50 12.70
8:04 pm 20:04 Cloudy with Heavy Rain 57 13.9 57 13.9 100 100 N 10 17 29.62 1003 3 5 0.10 2.54
8:25 pm 20:25 Cloudy with Heavy Rain 57 13.9 57 13.9 100 100 N 7 11 29.59 1002 3 4 0.26 6.60
8:33 pm 20:33 Cloudy with Heavy Rain 57 13.9 57 13.9 100 100 N 10 17 29.59 1002 3 5 0.31 7.87
8:53 pm 20:53 Cloudy with Heavy Rain 58 14.4 58 14.4 100 100 N 9 15 29.57 1002 3 5 0.45 11.43
9:04 pm 21:04 Cloudy with Heavy Rain 58 14.4 58 14.4 100 100 N 8 13 29.59 1002 3 4 0.10 2.54
9:21 pm 21:21 Cloudy with Heavy Rain 58 14.4 58 14.4 100 100 N 9 15 29.59 1002 3 5 0.24 6.10
9:31 pm 21:31 Cloudy with Heavy Rain 58 14.4 58 14.4 100 100 N 9 15 29.59 1002 3 5 0.32 8.13
9:53 pm 21:53 Cloudy with Heavy Rain 58 14.4 58 14.4 100 100 N 9 15 29.57 1001 3 5 0.46 11.68
10:23 pm 22:23 Cloudy with Rain 58 14.4 58 14.4 100 100 N 9 15 29.59 1002 4 6 0.12 3.05
10:53 pm 22:53 Cloudy with Light Rain 59 15 59 15 100 100 N 7 11 29.55 1001 6 10 0.19 4.83
11:05 pm 23:05 Cloudy with Light Rain 61 16.1 61 16.1 100 100 NNE 12 19 29.56 1001 8 13 0.01 0.25
11:53 pm 23:53 Cloudy with Light Rain 63 17.2 62 16.7 97 97 NE 10 17 29.54 1000 8 13 0.04 1.02

Powered by AerisWeather